Location: Allison Elementary School
(34.0784°N, 117.7317°W)
Time: 23:44:16
(UTC+00:00)

YAOGAN 1 - Pass Details

Date: 15 November 2019
Orbit: 619 x 621 km, 98.0° (Epoch: 09 December)

Event Time Altitude Azimuth Distance (km) Brightness Sun altitude
Rises 02:09:31 0° 157° (SSE) 2,882 5.9 -17.0°
Reaches altitude 10° 02:11:43 10° 153° (SSE) 1,980 5.0 -17.5°
Maximum altitude 02:15:56 57° 75° (ENE) 733 2.5 -18.4°
Drops below altitude 10° 02:20:11 10° 357° (N) 1,992 5.1 -19.2°
Sets 02:22:24 0° 353° (N) 2,901 6.0 -19.7°
